Meteo Giornale » Osservazioni meteo Stati Uniti (USA) » New York City Central Park

ore: 18:51 - Osservazioni Meteo New York City Central Park
Lat. 40° 47' N Lon. 73° 58' W Alt. 47 metri s.l.m.

sereno America/New_York

17 °C

Sereno

Temp. 24 Ore

13 °C

21 °C

Sud

9.3 Km/h

Dew point 11 °C

Umidità 67 %

Visibilità  10 Km

Il sole sorge alle ore 06:34

Il sole tramonta alle ore 17:43

Data e Ora Cielo e Fenomeni T °C DP °C Um. % Pres. hPa Vis. km Vento km/h
Oggi h: 18:51 sereno Sereno 17 11 67 1011 10 S 9.3
Oggi h: 17:51 sereno Sereno 18 11 63 1011 10 S 16.7
Oggi h: 16:51 sereno Sereno 18 11 63 1011 10 S 13
Oggi h: 15:51 sereno Sereno 19 11 59 1012 10 S 14.8
Oggi h: 14:51 sereno Sereno 20 11 56 1012 10 S 7.4
Oggi h: 13:51 sereno Sereno 20 11 56 1012 10 S/SE 14.8
Oggi h: 12:51 sereno Sereno 21 11 52 1013 10 S 14.8
Oggi h: 11:51 sereno Sereno 21 11 52 1014 10 S/SE 11.1
Oggi h: 10:51 sereno Sereno 19 12 63 1014 10 N 5.5
Oggi h: 09:51 sereno Sereno 17 12 72 1015 10 N 9.3
Oggi h: 08:51 sereno Sereno 16 11 72 1015 10 O/SO 18.5
Oggi h: 07:51 sereno Sereno 16 11 72 1014 10 N 0
Oggi h: 06:51 sereno Sereno 15 11 76 1014 10 N 0
Oggi h: 05:51 sereno Sereno 14 11 82 1014 10 N 11.1
Oggi h: 04:51 sereno Sereno 15 11 76 1014 10 O/SO 13
Oggi h: 03:51 sereno Sereno 15 11 76 1014 10 N 0
Oggi h: 02:51 sereno Sereno 16 11 72 1013 10 SO 7.4
Oggi h: 01:51 poco_nuvoloso Poco Nuvoloso 16 11 72 1013 10 N 7.4
Oggi h: 00:51 molto_nuvoloso Molto Nuvoloso 17 10 63 1013 10 O/SO 14.8
Ieri h: 23:51 nuvoloso Nuvoloso 17 11 67 1013 10 N 9.3
Ieri h: 22:51 sereno Sereno 18 11 63 1012 10 SO 7.4
Ieri h: 21:51 poco_nuvoloso Poco Nuvoloso 17 11 67 1012 10 N 7.4
Ieri h: 20:51 sereno Sereno 13 9 76 1012 14 N 0
Ieri h: 19:51 molto_nuvoloso Molto Nuvoloso 14 9 71 1012 14 N 5.5
Ieri h: 18:51 sereno Sereno 15 10 72 1012 10 N 5.5